Location: Stanford
(52.2833°N, 2.4333°W)
Time: 08:29:06
(UTC+00:00)

Cosmos 1340 - Visible Passes

Search period start: 09 May 2021 00:00
Search period end: 19 May 2021 00:00
Orbit: 499 x 504 km, 81.2° (Epoch: 08 May)

Date Brightness Start Highest point End Pass type
(mag) Time Alt. Az. Time Alt. Az. Time Alt. Az.
09 May 4.7 03:08:33 10° SSE 03:11:41 26° E 03:14:50 10° NE visible
10 May 5.1 02:49:33 10° SE 02:52:21 20° E 02:55:09 10° NE visible
11 May 5.3 02:30:41 10° SE 02:33:01 16° E 02:35:22 10° NE visible
12 May 5.4 02:12:05 10° ESE 02:13:43 13° E 02:15:22 10° ENE visible
13 May 2.6 03:25:35 10° SSW 03:29:19 88° WNW 03:33:06 10° NNE visible
14 May 2.9 03:06:11 10° S 03:09:54 70° E 03:13:39 10° NNE visible
15 May 3.3 02:46:51 10° S 02:50:29 53° E 02:54:11 10° NNE visible
16 May 3.8 02:27:35 10° SSE 02:31:06 40° E 02:34:39 10° NNE visible
17 May 4.2 02:08:24 10° SSE 02:11:44 31° E 02:15:05 10° NNE visible
18 May 4.5 01:49:18 10° SSE 01:52:22 24° E 01:55:28 10° NE visible
18 May 3.6 03:24:25 10° SW 03:27:49 32° WNW 03:31:15 10° N visible
